• In Hungary
  • List of Countries
  • For 7 days
  • Water Temperature
  • Satellite Maps
  • Weather Map
  • News
  • Weather Widgets
  • user-avatar
    Login

    Hourly Weather Bolshoy Pinezh

    Today, 17 July, Tuesday

    Time Temperature Precipitation Wind Pressure Humidity
    00:00 +20°C° 0.2 mm 2 mps 746 mmHg 96%
    01:00 +19°C° 0 mm 2 mps 745 mmHg 97%
    02:00 +19°C° 0 mm 2 mps 745 mmHg 97%
    03:00 +19°C° 0 mm 2 mps 745 mmHg 98%
    04:00 +19°C° 0 mm 2 mps 745 mmHg 96%
    05:00 +20°C° 0 mm 2 mps 745 mmHg 95%
    06:00 +21°C° 0 mm 3 mps 745 mmHg 94%
    07:00 +22°C° 0.2 mm 3 mps 745 mmHg 89%
    08:00 +24°C° 0.2 mm 3 mps 745 mmHg 84%
    09:00 +26°C° 0.2 mm 3 mps 745 mmHg 79%
    10:00 +26°C° 1.1 mm 3 mps 745 mmHg 77%
    11:00 +27°C° 1.1 mm 4 mps 744 mmHg 76%
    12:00 +27°C° 1.1 mm 4 mps 744 mmHg 74%
    13:00 +27°C° 1 mm 4 mps 744 mmHg 74%
    14:00 +28°C° 1 mm 4 mps 744 mmHg 74%
    15:00 +28°C° 1 mm 4 mps 744 mmHg 74%
    16:00 +27°C° 0.6 mm 4 mps 744 mmHg 78%
    17:00 +26°C° 0.6 mm 3 mps 744 mmHg 83%
    18:00 +26°C° 0.6 mm 3 mps 744 mmHg 87%
    19:00 +24°C° 0.1 mm 3 mps 744 mmHg 89%
    20:00 +22°C° 0.1 mm 3 mps 743 mmHg 91%
    21:00 +21°C° 0.1 mm 3 mps 743 mmHg 93%
    22:00 +21°C° 0 mm 3 mps 743 mmHg 93%
    23:00 +20°C° 0 mm 3 mps 743 mmHg 94%

    Tomorrow, 18 July, Wednesday

    Time Temperature Precipitation Wind Pressure Humidity
    00:00 +20°C° 0 mm 4 mps 743 mmHg 94%
    01:00 +20°C° 0 mm 4 mps 743 mmHg 94%
    02:00 +20°C° 0 mm 4 mps 742 mmHg 95%
    03:00 +19°C° 0 mm 4 mps 742 mmHg 95%
    04:00 +19°C° 0.6 mm 4 mps 742 mmHg 95%
    05:00 +19°C° 0.6 mm 4 mps 742 mmHg 94%
    06:00 +19°C° 0.6 mm 5 mps 742 mmHg 94%
    07:00 +19°C° 1.5 mm 4 mps 742 mmHg 95%
    08:00 +19°C° 1.5 mm 4 mps 742 mmHg 95%
    09:00 +19°C° 1.5 mm 4 mps 743 mmHg 96%
    10:00 +20°C° 0.3 mm 4 mps 743 mmHg 94%
    11:00 +21°C° 0.3 mm 4 mps 743 mmHg 92%
    12:00 +22°C° 0.3 mm 4 mps 743 mmHg 90%
    13:00 +23°C° 0.2 mm 4 mps 743 mmHg 87%
    14:00 +23°C° 0.2 mm 5 mps 743 mmHg 85%
    15:00 +25°C° 0.2 mm 5 mps 743 mmHg 82%
    16:00 +25°C° 0.5 mm 5 mps 743 mmHg 85%
    17:00 +23°C° 0.5 mm 4 mps 743 mmHg 88%
    18:00 +23°C° 0.5 mm 4 mps 743 mmHg 91%
    19:00 +22°C° 0.8 mm 4 mps 743 mmHg 92%
    20:00 +21°C° 0.8 mm 4 mps 743 mmHg 94%
    21:00 +21°C° 0.8 mm 4 mps 743 mmHg 95%
    22:00 +20°C° 0.2 mm 4 mps 744 mmHg 96%
    23:00 +20°C° 0.2 mm 3 mps 744 mmHg 97%

    Day after tomorrow, 19 July, Thursday

    Time Temperature Precipitation Wind Pressure Humidity
    00:00 +20°C° 0.2 mm 3 mps 744 mmHg 97%
    01:00 +20°C° 0.2 mm 3 mps 744 mmHg 98%
    02:00 +19°C° 0.2 mm 3 mps 744 mmHg 98%
    03:00 +19°C° 0.2 mm 3 mps 744 mmHg 98%
    04:00 +19°C° 0.3 mm 3 mps 744 mmHg 97%
    05:00 +20°C° 0.3 mm 3 mps 744 mmHg 97%
    06:00 +20°C° 0.3 mm 3 mps 744 mmHg 96%
    07:00 +21°C° 0.1 mm 2 mps 745 mmHg 92%
    08:00 +23°C° 0.1 mm 2 mps 745 mmHg 87%
    09:00 +24°C° 0.1 mm 2 mps 745 mmHg 82%
    10:00 +25°C° 0.4 mm 2 mps 745 mmHg 78%
    11:00 +26°C° 0.4 mm 3 mps 745 mmHg 73%
    12:00 +27°C° 0.4 mm 3 mps 745 mmHg 69%
    13:00 +27°C° 0.7 mm 3 mps 745 mmHg 70%
    14:00 +27°C° 0.7 mm 3 mps 746 mmHg 72%
    15:00 +27°C° 0.7 mm 3 mps 746 mmHg 73%
    16:00 +26°C° 0.7 mm 3 mps 746 mmHg 77%
    17:00 +26°C° 0.7 mm 3 mps 746 mmHg 81%
    18:00 +25°C° 0.7 mm 3 mps 746 mmHg 85%
    19:00 +24°C° 0.1 mm 3 mps 746 mmHg 88%
    20:00 +23°C° 0.1 mm 2 mps 746 mmHg 90%
    21:00 +21°C° 0.1 mm 2 mps 746 mmHg 93%
    22:00 +20°C° 0 mm 2 mps 746 mmHg 94%
    23:00 +20°C° 0 mm 2 mps 746 mmHg 95%

    20 July, Friday

    Time Temperature Precipitation Wind Pressure Humidity
    00:00 +19°C° 0 mm 2 mps 747 mmHg 96%
    01:00 +19°C° 0 mm 2 mps 747 mmHg 96%
    02:00 +19°C° 0 mm 2 mps 747 mmHg 96%
    03:00 +19°C° 0 mm 2 mps 747 mmHg 96%
    04:00 +19°C° 0 mm 2 mps 747 mmHg 95%
    05:00 +20°C° 0 mm 2 mps 747 mmHg 93%
    06:00 +21°C° 0 mm 3 mps 747 mmHg 91%
    07:00 +22°C° 0.4 mm 3 mps 747 mmHg 87%
    08:00 +24°C° 0.4 mm 3 mps 748 mmHg 83%
    09:00 +26°C° 0.4 mm 3 mps 748 mmHg 78%
    10:00 +26°C° 1.1 mm 3 mps 748 mmHg 78%
    11:00 +27°C° 1.1 mm 4 mps 748 mmHg 77%
    12:00 +27°C° 1.1 mm 4 mps 748 mmHg 76%
    13:00 +27°C° 0.8 mm 4 mps 748 mmHg 75%
    14:00 +27°C° 0.8 mm 4 mps 748 mmHg 75%
    15:00 +27°C° 0.8 mm 4 mps 748 mmHg 74%
    16:00 +27°C° 0.1 mm 4 mps 748 mmHg 75%
    17:00 +26°C° 0.1 mm 3 mps 748 mmHg 77%
    18:00 +26°C° 0.1 mm 3 mps 748 mmHg 78%
    19:00 +24°C° 0 mm 3 mps 748 mmHg 83%
    20:00 +22°C° 0 mm 3 mps 748 mmHg 88%
    21:00 +21°C° 0 mm 2 mps 748 mmHg 93%
    22:00 +20°C° 0 mm 2 mps 748 mmHg 93%
    23:00 +20°C° 0 mm 2 mps 748 mmHg 94%

    21 July, Saturday

    Time Temperature Precipitation Wind Pressure Humidity
    00:00 +19°C° 0 mm 2 mps 748 mmHg 95%
    01:00 +19°C° 0 mm 3 mps 748 mmHg 95%
    02:00 +19°C° 0 mm 3 mps 748 mmHg 96%
    03:00 +18°C° 0 mm 3 mps 748 mmHg 97%
    04:00 +19°C° 0 mm 3 mps 748 mmHg 94%
    05:00 +19°C° 0 mm 3 mps 748 mmHg 92%
    06:00 +20°C° 0 mm 4 mps 748 mmHg 90%
    07:00 +21°C° 0 mm 4 mps 748 mmHg 84%
    08:00 +23°C° 0 mm 4 mps 748 mmHg 79%
    09:00 +25°C° 0 mm 4 mps 749 mmHg 73%
    10:00 +26°C° 0 mm 4 mps 748 mmHg 70%
    11:00 +27°C° 0 mm 5 mps 748 mmHg 66%
    12:00 +28°C° 0 mm 5 mps 748 mmHg 63%
    13:00 +28°C° 0.1 mm 5 mps 748 mmHg 63%
    14:00 +28°C° 0.1 mm 5 mps 748 mmHg 63%
    15:00 +28°C° 0.1 mm 5 mps 748 mmHg 64%
    16:00 +27°C° 0.3 mm 5 mps 748 mmHg 69%
    17:00 +26°C° 0.3 mm 4 mps 748 mmHg 74%
    18:00 +26°C° 0.3 mm 4 mps 748 mmHg 79%
    19:00 +24°C° 0.1 mm 3 mps 748 mmHg 82%
    20:00 +22°C° 0.1 mm 3 mps 748 mmHg 84%
    21:00 +21°C° 0.1 mm 3 mps 748 mmHg 87%
    22:00 +20°C° 0 mm 3 mps 748 mmHg 88%
    23:00 +20°C° 0 mm 3 mps 748 mmHg 88%

    22 July, Sunday

    Time Temperature Precipitation Wind Pressure Humidity
    00:00 +19°C° 0 mm 3 mps 748 mmHg 88%
    01:00 +19°C° 0 mm 3 mps 748 mmHg 88%
    02:00 +18°C° 0 mm 3 mps 748 mmHg 88%
    03:00 +18°C° 0 mm 4 mps 748 mmHg 88%
    04:00 +18°C° 0 mm 4 mps 748 mmHg 87%
    05:00 +18°C° 0 mm 4 mps 748 mmHg 85%
    06:00 +19°C° 0 mm 4 mps 749 mmHg 83%
    07:00 +20°C° 0 mm 4 mps 749 mmHg 78%
    08:00 +22°C° 0 mm 5 mps 749 mmHg 73%
    09:00 +23°C° 0 mm 5 mps 749 mmHg 67%
    10:00 +25°C° 0 mm 5 mps 749 mmHg 64%
    11:00 +26°C° 0 mm 5 mps 749 mmHg 60%
    12:00 +27°C° 0 mm 5 mps 749 mmHg 57%
    13:00 +27°C° 0 mm 5 mps 748 mmHg 57%
    14:00 +27°C° 0 mm 5 mps 748 mmHg 57%
    15:00 +27°C° 0 mm 5 mps 748 mmHg 57%
    16:00 +26°C° 0 mm 5 mps 748 mmHg 61%
    17:00 +26°C° 0 mm 5 mps 748 mmHg 64%
    18:00 +25°C° 0 mm 4 mps 748 mmHg 68%
    19:00 +23°C° 0 mm 4 mps 748 mmHg 72%
    20:00 +21°C° 0 mm 4 mps 748 mmHg 76%
    21:00 +20°C° 0 mm 3 mps 748 mmHg 80%
    22:00 +19°C° 0 mm 3 mps 748 mmHg 82%
    23:00 +18°C° 0 mm 3 mps 748 mmHg 84%
    Show more